Tracking 29892 objects as of 21-Nov-2024
HD Live streaming from Space Station
objects crossing your sky now

FENGYUN 1C DEB

Track FENGYUN 1C DEB now!
10-day predictions


NORAD ID: 31761
Int'l Code: 1999-025CFL
Perigee: 550.7 km
Apogee: 1,277.8 km
Inclination: 98.7 °
Period: 103.1 minutes
Semi major axis: 7285 km
RCS: 0.0036 m2 (small)
Launch date: May 10, 1999
Source: People's Republic of China (PRC)
Launch site: Taiyaun Space Center, China (TSC)

Note: This is SATELLITE DEBRIS
Your satellite tracking list
Your tracking list is empty




NASA's NSSDC Master Catalog

Two Line Element Set (TLE):
1 31761U 99025CFL 24324.37728627  .00013607  00000-0  34185-2 0  9990
2 31761  98.6864 200.9912 0499049 272.2517  82.1609 13.96161142526761
Source of the keplerian elements: AFSPC